CAPE
3104 2991 2868 2670 2737 2898 2908 2914 2839 2703 2506 2447 2276 2152 2140 1993 1852 1913 1922 1679 1567 1444 1089 809 635 447 374 332 237 257 200 151 110 75 144 320 76 69 31 130 111 58 230 340 213 136 71 67 40 70 250 61 90 204 268 134 244 198 193 259 317 322 152 59 46 72 118 196 160 147 136 162 123 77 50 1 29 117 354 130 6 0 0 0 0
3124 3034 2899 2724 2656 2825 2906 2875 2891 2716 2534 2442 2276 2070 2158 2007 1847 1784 1793 1701 1530 1419 1249 902 648 546 476 270 205 221 226 180 136 100 78 84 180 183 108 148 69 36 19 6 19 43 282 252 310 352 295 242 144 129 170 249 170 170 285 270 220 249 302 136 45 30 34 149 147 138 176 165 88 57 30 25 24 16 107 119 85 29 4 0 0
3144 3035 2931 2803 2668 2729 2812 2863 2870 2780 2574 2440 2376 2166 2087 1998 1849 1700 1602 1496 1439 1366 1191 930 722 597 486 314 211 209 338 262 174 160 119 66 99 186 159 235 117 14 52 36 35 43 70 164 174 340 555 298 290 251 260 242 230 199 214 359 312 282 419 295 161 131 88 50 59 73 58 51 33 45 71 54 22 9 4 17 74 118 125 37 10
3093 3012 2939 2868 2772 2741 2744 2780 2845 2801 2628 2474 2427 2313 2122 2001 1857 1679 1535 1438 1344 1259 1120 900 786 661 495 381 337 292 276 278 217 199 172 155 90 114 106 146 239 183 127 171 365 409 234 130 130 243 329 259 255 187 182 193 234 219 247 553 313 326 302 358 114 37 55 47 101 84 78 70 95 130 145 199 153 59 27 11 6 4 1 10 18
3048 2986 2938 2875 2850 2806 2747 2721 2765 2805 2659 2528 2469 2371 2213 2055 1906 1751 1602 1497 1400 1284 1084 967 876 725 563 413 323 291 303 194 177 221 238 241 162 124 102 84 123 145 100 58 228 123 202 296 303 250 187 141 208 248 207 135 210 276 288 360 398 471 810 482 311 153 95 61 22 21 34 72 59 52 62 108 124 158 170 154 102 19 1 2 12
2984 2978 2898 2850 2850 2852 2790 2720 2731 2773 2690 2548 2498 2374 2230 2081 1941 1805 1637 1522 1433 1312 1283 1113 982 858 691 562 471 329 360 262 189 168 250 278 229 173 138 133 148 155 148 122 174 168 145 126 224 321 207 106 155 200 290 262 316 328 341 376 280 402 458 448 341 257 136 78 49 50 46 44 40 63 172 289 291 252 188 173 157 72 6 0 0
3006 2971 2911 2831 2834 2876 2803 2714 2699 2746 2740 2583 2461 2369 2188 2045 1931 1837 1689 1526 1406 1293 1361 1226 1065 959 805 671 532 380 426 408 286 158 175 229 245 202 185 168 193 290 328 310 315 331 357 411 366 322 206 170 186 245 201 302 172 167 542 829 626 670 574 512 543 424 336 250 222 198 146 137 116 122 190 324 352 235 133 119 3 0 0 0 0
2925 3026 2933 2822 2806 2883 2868 2730 2667 2691 2729 2660 2485 2360 2206 1982 1899 1823 1721 1579 1444 1433 1531 1400 1199 1030 888 747 610 480 446 502 349 217 242 280 276 134 119 127 127 164 290 391 405 408 399 354 327 410 408 374 273 137 71 116 103 102 226 128 294 450 494 579 670 677 602 494 349 184 177 236 277 228 180 124 117 120 243 236 131 32 0 0 6
2760 2949 2998 2855 2772 2846 2912 2839 2734 2712 2721 2682 2528 2362 2212 2023 1867 1781 1682 1598 1454 1538 1754 1645 1382 1204 1060 894 712 584 457 571 473 287 305 249 41 32 7 31 56 93 184 289 294 220 306 316 314 374 377 604 630 267 133 216 253 226 519 435 359 488 564 592 604 495 284 116 86 94 78 47 23 25 47 2 5 23 21 15 85 147 160 49 0
2669 2809 3019 2910 2744 2745 2863 2874 2790 2772 2772 2714 2600 2436 2261 2051 1857 1749 1653 1588 1684 1773 2032 1913 1665 1455 1268 1085 886 702 580 648 669 400 345 289 193 177 0 0 9 42 143 327 346 308 275 272 265 763 852 1154 1326 990 590 346 472 208 326 610 615 539 422 344 202 102 89 91 110 142 196 226 242 217 137 0 40 34 19 0 0 0 0 0 0
2606 2684 2944 2957 2779 2689 2765 2816 2790 2777 2791 2790 2725 2569 2408 2217 1993 1757 1596 1600 1702 1859 2201 2181 2026 1814 1571 1328 1108 881 670 726 703 621 315 475 286 0 0 0 16 47 157 317 355 335 322 293 306 988 1340 1413 1046 1019 662 440 400 449 707 846 614 449 337 273 250 259 229 188 222 287 307 295 275 239 221 192 138 55 32 89 138 13 14 8 3
2460 2538 2706 2884 2832 2706 2734 2820 2824 2773 2778 2829 2812 2732 2582 2423 2241 2001 1851 1876 1800 1906 2202 2261 2179 2029 1844 1602 1334 1046 669 480 638 519 526 380 0 61 141 96 86 119 283 339 336 312 422 424 333 348 616 1060 725 897 425 241 249 263 280 456 702 712 442 150 72 71 134 189 237 273 259 241 224 131 19 6 2 178 161 110 24 53 60 73 42
2438 2570 2551 2659 2744 2699 2717 2791 2869 2845 2825 2826 2835 2820 2732 2592 2415 2196 2244 2176 2036 2018 2162 2191 2150 2022 1850 1664 1464 1207 974 836 674 616 477 332 108 6 1 57 190 280 374 392 366 366 454 428 375 469 980 1347 620 342 138 281 531 471 590 652 501 299 132 151 235 263 282 280 258 193 174 150 75 40 37 48 107 19 4 87 131 35 4 0 0
2223 2532 2590 2587 2609 2640 2740 2794 2862 2932 2928 2883 2835 2815 2776 2696 2577 2426 2352 2464 2336 2226 2156 2158 2151 2071 1959 1846 1703 1369 1320 1256 1213 1181 856 320 311 0 2 61 141 340 431 507 524 558 545 446 424 584 658 557 434 410 435 452 379 662 762 755 728 825 686 564 538 479 266 201 138 92 68 24 16 18 30 157 184 181 237 215 4 0 0 0 0
2059 2219 2475 2557 2563 2609 2772 2852 2901 3018 3079 3048 2933 2817 2770 2726 2654 2546 2393 2522 2566 2514 2466 2409 2322 2186 1937 1826 1827 1718 1651 1636 1479 1237 1041 936 356 398 47 165 232 456 535 582 614 675 652 598 568 610 656 676 683 698 611 471 622 857 1094 1169 1104 992 926 863 717 497 287 173 100 56 40 25 17 45 336 547 550 403 174 0 0 0 0 0 0
1944 1919 2156 2346 2435 2493 2713 2906 3016 3172 3283 3260 3160 2992 2801 2682 2724 2748 2639 2577 2523 2462 2424 2332 2250 2143 2033 1892 1887 1952 1896 1844 1758 1640 1636 1505 1184 732 299 178 393 592 656 636 657 676 698 668 586 677 730 718 756 734 657 490 638 916 1021 1100 1089 1009 895 597 448 382 489 297 209 229 221 299 398 422 268 138 119 64 46 24 7 0 0 0 0
1735 1836 1908 1982 2067 2188 2558 2959 3207 3398 3486 3477 3406 3313 3190 2944 2929 2887 2792 2727 2687 2634 2555 2397 2319 2252 2187 2244 2177 2124 2032 2022 2059 1936 1826 1674 1541 939 527 534 418 738 804 747 717 680 651 604 471 360 487 557 650 736 651 625 486 662 812 813 672 513 309 87 200 281 241 180 208 210 0 0 0 0 0 6 34 7 3 0 0 0 0 0 0
1595 1693 1748 1765 1788 1940 2470 3027 3376 3580 3670 3689 3654 3584 3469 3314 3133 2985 2882 2804 2734 2666 2525 2404 2437 2181 2202 2316 2364 2374 2337 2234 2150 1931 1643 1656 1514 1311 962 787 644 549 791 739 681 653 767 1175 967 570 557 599 696 723 710 640 509 429 543 568 499 369 90 13 34 121 0 0 0 0 0 0 0 0 0 0 0 0 0 0 0 0 0 0 0
1659 1748 1657 1633 1646 2085 2837 3264 3540 3709 3826 3861 3836 3754 3649 3544 3400 3242 3096 2963 2873 2783 2719 2940 2964 2596 2408 2499 2502 2372 2304 2088 1842 1839 1676 1514 1349 1155 1106 922 711 502 742 723 684 669 851 1304 1679 1174 985 979 974 927 808 600 444 336 423 467 406 81 84 0 0 0 0 0 0 0 0 0 0 0 0 18 28 24 1 0 0 3 2 1 0
1670 1844 1784 1708 2006 2780 3360 3604 3767 3863 3922 3966 3907 3853 3761 3694 3599 3497 3401 3297 3209 3118 3090 3274 3084 2696 2561 2521 2520 2294 2064 1920 1737 1648 1402 1192 1092 887 797 722 617 542 666 670 639 615 649 694 962 1270 1305 1296 1171 926 697 463 384 400 410 339 162 207 0 0 0 0 0 0 0 0 0 0 0 0 0 0 0 15 40 29 22 18 16 13 10
1566 2262 2543 2798 3160 3458 3661 3770 3839 3902 3967 3954 3914 3862 3798 3711 3652 3564 3458 3336 3280 3278 3515 3497 3158 2821 2744 2610 2158 1833 1417 991 846 769 723 703 684 679 641 490 290 433 620 662 610 577 552 602 1030 1206 1284 1316 1159 758 631 573 518 415 274 167 0 0 0 0 0 0 0 0 0 0 0 0 0 0 0 0 0 0 1 1 2 9 7 0 0
2556 3526 3643 3660 3732 3795 3780 3721 3739 3816 3825 3822 3785 3725 3648 3612 3554 3510 3454 3470 3512 3695 3683 3443 3199 2985 2566 2241 1775 1206 843 675 552 473 436 376 366 336 281 299 344 352 636 645 620 538 528 710 956 1182 1199 870 444 420 445 298 200 203 214 0 0 0 0 0 0 0 0 0 0 0 0 0 0 0 0 0 0 0 0 0 0 0 0 0 0
4109 4177 4007 3866 3822 3854 3790 3657 3613 3604 3637 3640 3608 3580 3583 3567 3579 3596 3681 3723 3715 3659 3445 3281 3014 2712 2436 1852 1355 896 783 680 591 548 478 408 338 304 71 400 621 617 621 583 542 618 844 976 1044 996 647 343 210 0 0 0 54 0 0 0 0 0 0 0 0 0 0 0 0 0 0 0 0 0 0 0 0 0 0 0 0 0 0 0 0
4458 4304 4021 3779 3727 3788 3733 3607 3559 3541 3527 3476 3438 3506 3552 3632 3675 3647 3421 2942 2876 2826 2734 2559 2422 2233 1705 1124 900 812 787 693 498 516 490 439 379 336 0 135 619 654 382 644 735 785 800 889 742 526 373 0 0 0 0 0 0 0 0 0 0 0 0 0 0 0 0 0 0 0 0 0 0 0 0 0 0 0 0 0 0 0 0 0 0
4472 4298 4062 3787 3650 3559 3547 3502 3452 3392 3371 3371 3438 3478 3589 3675 3586 2975 2517 2318 2121 1923 1806 1749 1574 1277 1072 926 888 848 843 634 331 395 8 0 0 0 0 0 0 0 178 220 619 538 512 615 441 450 0 464 444 281 0 0 0 0 0 0 0 0 0 0 0 0 0 0 0 0 0 0 0 0 0 0 0 0 0 0 0 0 0 0 0
4346 4041 3791 3672 3692 3489 3433 3396 3244 3193 3172 3340 3541 3687 3708 3358 2672 2405 2205 1994 1811 1700 1647 1557 1376 1221 1145 1066 1062 1003 650 454 0 0 0 0 0 0 0 0 0 0 78 362 590 581 456 468 394 515 524 513 446 301 203 68 0 0 0 0 0 0 0 0 0 0 0 0 0 0 0 0 0 0 0 0 0 0 0 0 0 0 0 0 0
3588 3396 3362 3024 3011 2953 3237 3155 2809 2923 3390 3697 3700 3385 3047 2610 2251 1976 1889 1760 1538 1380 1177 1124 1094 1060 1024 932 730 651 560 110 0 0 0 0 0 0 0 0 0 0 269 341 348 610 655 639 573 485 480 454 373 274 205 88 0 0 0 0 0 0 0 0 0 0 0 0 0 0 0 0 0 0 0 0 0 0 0 0 0 0 0 0 0
3163 2757 2779 2885 2801 3425 2836 3053 3600 3471 3327 2913 2824 2784 2592 2241 1916 1653 1507 1283 1113 1055 979 885 746 585 514 513 609 586 414 11 0 0 0 0 0 0 0 0 0 0 0 0 0 0 418 531 481 460 393 318 260 173 84 0 0 0 0 0 0 0 0 0 0 0 0 0 0 0 0 0 0 0 0 0 0 0 0 0 0 0 0 0 0
3194 3041 2659 2638 2768 2597 2781 3524 3432 2844 2470 2207 2239 2178 2017 1826 1569 1344 1052 1001 944 907 842 836 598 362 339 354 588 592 425 37 0 0 0 0 0 0 0 0 0 0 0 0 0 0 145 336 330 0 0 0 5 0 0 0 0 0 0 0 0 0 0 0 0 0 0 0 0 0 0 0 0 0 0 0 0 0 0 0 0 0 0 0 0
2399 2743 2364 2002 2790 3257 3286 2969 2462 2021 1839 1709 1754 1647 1564 1382 1190 1085 727 752 770 647 473 137 64 135 0 176 560 686 634 384 0 0 0 0 0 0 0 0 0 0 0 0 0 0 0 220 225 0 0 0 0 0 0 0 0 1 0 0 0 0 0 0 0 0 0 0 0 0 0 0 0 0 0 0 0 0 0 0 0 0 0 0 0
2337 2148 2058 1998 1861 1846 1814 1806 1794 1763 1710 1495 1401 1320 1204 1092 1033 875 723 580 395 191 0 0 0 0 0 0 165 587 712 675 494 77 0 0 0 0 0 0 0 0 0 0 0 0 0 0 0 0 0 0 0 0 0 0 19 17 0 0 17 25 8 0 0 0 0 0 0 0 0 0 0 0 0 0 0 0 0 0 0 0 0 0 0
2506 2312 2065 1983 1830 1714 1699 1702 1652 1567 1533 1468 1440 1172 955 910 932 819 716 602 417 290 0 0 0 0 0 0 0 210 634 758 453 74 0 0 0 0 0 0 0 0 0 0 0 0 0 0 0 0 0 0 0 0 0 2 0 0 23 34 36 38 32 13 0 0 0 0 0 0 0 0 0 0 0 0 0 0 0 0 0 0 0 0 0
1983 1929 1865 1865 1857 1787 1676 1680 1686 1660 1539 1529 1337 1256 1177 1068 860 600 473 408 349 330 0 0 0 0 0 0 0 0 0 424 354 46 0 220 271 61 0 0 0 0 0 0 0 0 0 0 0 2 0 0 0 0 0 0 0 0 0 21 12 0 0 0 0 0 0 0 0 0 0 0 0 0 0 0 0 0 0 0 0 0 0 0 0
1547 1622 1698 1721 1717 1734 1784 1728 1737 1719 1680 1599 1604 1565 1382 1160 878 646 468 400 401 374 0 0 0 0 0 0 0 0 0 0 0 0 0 73 360 417 32 0 0 0 0 0 1 1 0 0 6 0 0 9 17 12 0 0 0 0 0 0 0 0 1 1 0 0 0 0 0 0 0 0 0 0 0 0 0 0 0 0 0 0 0 0 0
1497 1682 1586 1569 1595 1573 1606 1613 1718 1799 1807 1675 1503 1187 1089 938 836 734 608 546 431 320 73 0 0 0 0 0 0 0 0 0 0 0 0 281 442 351 0 0 0 0 0 0 0 0 0 22 1 38 4 0 0 0 0 0 0 0 0 0 0 0 1 0 0 0 0 0 0 0 0 0 0 0 0 0 0 0 0 0 0 0 0 0 0
1617 1524 1527 1560 1416 1371 1186 1035 1000 1032 1094 1069 1086 1144 1141 1088 976 882 692 561 432 320 305 325 49 0 0 0 0 0 0 0 0 0 292 423 385 20 0 0 0 0 0 0 0 0 0 0 4 0 0 0 0 0 0 0 0 0 0 0 0 0 1 1 0 0 0 0 0 0 0 0 0 0 0 0 0 0 0 0 0 0 0 0 0
1693 1646 1489 1364 1196 1137 1094 1073 1063 999 957 974 1015 1038 976 976 959 824 659 580 494 426 411 302 0 0 0 0 0 0 0 0 0 0 0 0 0 0 0 0 0 0 0 0 0 0 0 0 0 0 0 0 0 0 0 0 0 0 0 0 0 0 0 0 0 0 0 0 0 0 0 0 0 0 0 0 0 0 0 0 0 0 0 0 0
1569 1533 1372 1365 1210 1113 1170 1118 1083 1066 990 879 876 842 824 759 692 625 594 684 623 525 318 0 0 0 0 0 0 0 0 0 0 0 0 0 0 0 0 0 0 0 33 42 0 0 0 0 0 0 0 0 0 0 0 0 0 0 0 0 0 0 0 0 0 0 0 0 0 0 0 0 0 0 0 0 0 0 0 0 0 0 0 0 0
1468 1429 1334 1408 1174 1053 1089 1087 1015 945 943 898 820 706 656 634 612 638 702 712 577 230 0 0 0 0 0 0 0 0 0 0 0 0 0 0 0 0 0 0 3 0 0 0 0 0 0 0 0 0 0 0 0 0 0 0 0 0 0 0 0 0 0 0 0 0 0 0 0 0 0 0 0 0 0 0 0 0 0 0 0 0 0 0 0
1462 1395 1298 1275 1266 1202 1096 1003 993 973 901 748 715 680 587 510 488 594 644 448 0 0 0 0 0 0 0 0 0 0 0 0 0 0 0 0 0 0 0 0 0 0 0 0 0 0 0 0 0 0 0 0 0 0 0 0 0 0 0 0 0 0 0 0 0 0 0 0 0 0 0 0 0 0 0 0 0 0 0 0 0 0 0 0 0
1588 1494 1384 1281 1272 1278 1110 984 994 921 860 774 611 618 562 543 299 1 0 0 0 0 0 0 0 0 0 0 0 0 0 0 0 0 0 0 0 0 0 0 0 0 0 0 0 0 0 0 0 0 0 0 0 0 0 0 0 0 0 0 0 0 0 0 0 0 0 0 0 0 0 0 0 0 0 0 0 0 0 0 0 0 0 0 0
1378 1450 1053 1164 1295 1176 880 695 721 663 768 652 600 527 255 34 7 2 1 0 0 0 16 15 0 0 0 0 0 0 0 0 0 0 0 0 0 0 0 0 0 0 0 0 0 0 0 0 0 0 0 0 0 0 0 0 0 0 0 0 0 0 0 0 0 0 0 0 0 0 0 0 0 0 0 0 0 0 0 0 0 0 0 0 0
862 990 1064 892 815 903 803 563 477 504 309 299 285 252 128 8 5 12 2 19 70 95 83 56 35 9 0 0 0 0 0 0 0 0 0 0 0 0 0 0 0 0 0 0 0 0 0 0 0 0 0 0 0 0 0 0 0 0 0 0 0 0 0 0 0 0 0 0 0 0 0 0 0 0 0 0 0 0 0 0 0 0 0 0 0
849 980 796 624 542 494 520 363 50 248 148 272 117 10 26 40 173 140 120 122 125 118 109 100 60 10 0 0 0 0 0 0 0 1 0 0 0 0 0 0 0 0 0 0 0 0 0 0 0 0 0 0 0 0 1 4 3 1 0 0 0 0 0 0 0 0 0 0 0 0 0 0 0 0 0 0 0 0 0 0 0 0 0 0 0
776 875 594 50 413 204 65 100 198 38 72 68 14 5 52 112 145 168 133 120 122 149 104 43 0 0 0 0 0 0 4 8 0 0 0 0 0 0 0 0 0 0 0 0 0 0 0 0 0 0 0 0 0 2 5 5 6 4 1 0 0 0 0 0 0 0 0 0 0 0 0 0 0 0 0 0 0 0 0 0 0 0 0 0 0
75 216 239 8 10 13 44 82 210 17 0 10 49 81 108 117 132 123 78 82 116 114 94 30 0 0 0 0 0 0 0 0 0 0 0 0 0 0 0 0 0 0 0 0 0 0 0 0 0 0 1 5 3 2 0 1 0 0 0 0 0 0 0 0 0 0 0 0 0 0 0 0 0 0 0 0 0 0 0 0 0 0 0 0 0
3 0 0 0 104 0 0 0 97 118 76 71 108 128 150 143 102 70 69 63 37 85 12 0 0 0 0 0 0 0 0 0 0 0 0 0 0 0 0 0 0 0 0 0 0 0 0 0 2 11 13 8 1 0 0 0 0 0 0 0 0 0 0 0 0 0 0 0 0 0 0 0 0 0 0 0 0 0 0 0 0 0 0 0 0
0 0 0 73 77 20 57 103 93 97 74 105 128 142 108 99 69 45 6 20 13 6 6 2 0 0 0 0 0 0 0 0 0 0 0 0 0 0 0 0 0 0 0 0 4 6 10 8 3 4 0 0 0 0 0 0 0 0 0 0 0 0 0 0 0 0 0 0 0 0 0 0 0 0 0 0 0 0 0 0 0 0 0 0 0
0 0 0 0 0 0 6 62 89 91 91 65 3 19 4 14 12 9 8 8 3 0 0 0 0 0 0 0 0 0 0 0 0 0 0 0 0 0 0 0 0 0 0 0 0 1 2 0 0 0 0 0 0 0 0 0 0 0 0 0 0 0 0 0 0 0 0 0 0 0 0 0 0 0 0 0 0 0 0 0 0 0 0 0 0
7 0 0 0 0 0 0 11 11 0 4 42 37 32 24 28 15 13 10 9 1 0 0 0 0 0 0 0 0 0 0 0 0 0 0 0 0 0 0 0 0 0 0 0 0 0 0 0 0 0 0 0 0 0 0 0 0 0 0 0 0 0 0 0 0 0 0 0 0 0 0 0 0 0 0 0 0 0 0 0 0 0 0 0 0
104 1 1 0 0 0 0 0 5 12 19 72 46 49 27 2 2 0 0 0 0 0 0 0 0 0 0 0 0 0 5 16 0 0 2 2 0 0 0 0 0 0 0 0 0 0 0 0 0 0 0 0 0 0 0 0 0 0 0 0 0 0 0 0 0 0 0 0 0 0 0 0 0 0 0 0 0 0 0 0 0 0 0 0 0
Wind_Speed
20 19 19 17 17 17 16 14 15 13 9 3 1 4 7 10 11 12 12 13 14 17 18 18 20 21 22 21 23 23 25 26 26 nan 26 27 nan nan nan 30 31 nan 32 33 34 35 nan nan nan nan 35 nan nan 34 33 34 34 34 33 34 33 28 26 nan nan nan 29 33 36 37 37 38 37 nan nan nan nan 32 31 30 nan nan nan nan nan
18 18 17 16 17 15 15 13 13 9 5 3 4 6 8 10 12 13 15 15 16 18 19 20 20 22 21 21 22 24 26 29 30 29 nan nan 28 28 30 32 nan nan nan nan nan nan 36 36 36 36 35 35 35 35 34 35 37 36 33 32 32 29 26 26 nan nan nan 33 35 36 36 37 nan nan nan nan nan nan 35 34 nan nan nan nan nan
17 16 16 15 15 13 13 12 10 8 5 4 7 8 9 11 13 15 16 15 16 18 19 20 20 20 19 20 24 27 29 31 33 34 34 nan nan 30 31 32 33 nan nan nan nan nan nan 36 36 35 34 34 34 34 35 37 38 38 35 32 31 30 29 30 30 28 nan nan nan nan nan nan nan nan nan nan nan nan nan nan nan 38 38 nan nan
15 15 14 14 14 12 13 11 10 8 5 5 8 9 10 11 13 15 15 15 17 16 18 18 18 19 20 22 26 28 31 32 35 37 38 37 nan 34 34 34 35 36 37 36 36 36 37 37 36 36 35 34 33 34 35 38 39 39 37 36 36 34 32 33 32 nan nan nan 33 nan nan nan nan 37 40 42 42 nan nan nan nan nan nan nan nan
13 13 14 14 13 12 12 9 10 9 6 5 8 10 11 12 12 14 14 15 16 16 16 17 18 21 23 26 28 30 32 34 36 37 38 37 38 38 37 nan 37 37 38 nan 38 37 36 37 37 37 36 34 32 34 36 38 39 39 39 39 39 38 35 35 33 33 nan nan nan nan nan nan nan nan nan 41 40 42 44 46 46 nan nan nan nan
11 12 12 12 12 12 9 8 9 9 7 4 7 9 11 11 12 12 14 16 16 17 18 18 20 24 26 28 29 30 31 33 36 38 39 39 39 39 39 39 39 39 39 40 40 38 36 35 36 38 37 35 34 35 37 39 39 40 39 39 39 38 37 35 34 33 32 nan nan nan nan nan nan nan 38 43 41 41 43 45 46 nan nan nan nan
10 11 11 11 11 9 7 7 7 7 6 3 4 7 9 11 13 15 16 18 20 21 20 21 22 26 28 28 29 30 31 33 36 39 41 42 43 42 41 41 41 41 41 42 42 41 39 37 37 38 37 35 35 38 39 39 40 41 41 40 39 38 36 36 35 34 33 31 30 30 29 32 35 33 37 43 43 44 43 43 nan nan nan nan nan
9 9 9 8 9 7 6 5 5 6 5 2 2 5 8 12 15 17 18 21 24 26 27 27 26 28 30 30 29 30 32 34 36 40 44 46 45 45 44 44 44 43 41 41 41 41 40 37 36 37 36 35 36 38 nan 40 40 40 39 38 38 37 36 36 35 35 33 32 31 29 31 31 34 37 40 41 40 40 41 41 36 nan nan nan nan
9 9 7 6 7 4 4 2 3 3 3 3 3 5 9 12 15 18 21 23 24 27 28 29 30 31 32 32 33 33 35 37 38 42 45 45 nan nan nan nan nan nan 42 40 37 36 36 36 35 35 35 34 37 39 39 39 39 39 38 38 37 37 36 36 37 36 34 33 nan nan nan nan nan nan nan nan nan nan nan nan nan 36 36 nan nan
10 8 7 4 2 1 2 1 1 1 2 4 2 5 10 13 16 19 22 24 25 26 27 29 31 33 35 35 35 35 35 36 41 48 47 46 45 45 nan nan nan nan 42 39 36 34 34 34 34 36 35 36 37 39 41 42 41 40 40 39 39 38 37 37 36 36 nan nan 34 34 34 34 35 38 38 nan nan nan nan nan nan nan nan nan nan
12 8 6 3 2 4 3 2 3 2 1 3 3 7 11 14 17 19 22 24 26 27 28 30 32 33 36 37 38 38 38 38 45 47 49 50 46 nan nan nan nan nan 41 39 36 35 33 33 32 31 32 34 37 41 42 42 41 41 42 43 42 41 39 38 37 38 39 39 39 40 40 39 40 43 43 43 45 nan nan nan 46 nan nan nan nan
15 8 7 5 4 4 4 3 4 4 4 4 6 9 12 15 17 19 22 25 26 28 29 31 33 35 36 39 40 41 41 43 48 49 51 50 nan nan 45 nan nan 41 39 36 34 33 32 30 29 28 29 32 35 38 41 41 41 41 40 39 41 42 41 40 nan nan 43 43 42 44 44 44 44 45 nan nan nan 46 47 47 nan nan nan nan nan
19 11 10 8 5 4 5 5 5 7 6 7 10 12 14 15 18 21 24 26 28 31 31 32 32 34 38 41 41 42 41 45 48 51 53 51 42 nan nan nan 43 40 36 34 32 31 30 29 28 28 30 39 40 40 40 38 39 41 39 37 36 37 38 38 41 43 44 45 45 44 46 47 nan nan nan nan 51 nan nan nan 46 nan nan nan nan
23 17 13 10 6 6 7 7 8 9 10 12 14 15 16 17 20 23 26 29 31 32 34 35 32 35 40 43 43 43 43 46 50 53 59 61 49 nan nan nan 40 38 35 34 32 31 31 30 31 32 33 36 38 40 38 38 39 39 38 38 39 39 40 41 41 41 43 46 47 nan nan nan nan nan nan 50 51 47 47 44 nan nan nan nan nan
26 23 17 12 9 8 8 8 8 11 13 15 17 17 18 19 23 26 30 32 35 36 38 37 35 38 44 46 45 46 46 52 53 56 61 61 56 47 nan 39 38 37 36 35 34 34 33 33 34 37 37 37 38 40 40 39 39 38 39 40 40 40 41 42 44 46 48 49 50 nan nan nan nan nan 47 49 50 49 51 nan nan nan nan nan nan
27 26 22 16 11 9 10 10 11 13 16 17 18 18 20 23 26 30 33 34 37 40 38 38 40 42 47 50 49 48 48 56 55 58 62 59 54 44 41 39 38 38 38 37 36 36 37 36 37 38 38 39 40 42 41 40 41 41 41 40 40 41 42 44 44 44 45 49 52 52 51 51 51 50 51 52 51 nan nan nan nan nan nan nan nan
27 27 24 20 15 13 13 13 15 16 17 19 19 20 23 26 29 32 36 36 38 39 40 42 44 47 51 52 51 48 46 50 51 53 57 58 52 44 42 40 38 39 40 39 38 38 38 38 38 38 39 39 39 41 41 43 42 41 41 40 40 40 40 nan 42 41 42 44 44 44 nan nan nan nan nan nan nan nan nan nan nan nan nan nan nan
28 28 26 23 19 18 17 17 18 19 20 20 21 23 26 29 31 34 38 38 39 41 43 46 48 50 52 50 47 45 42 44 49 51 56 57 53 47 43 41 38 39 40 39 39 39 39 42 40 39 40 39 40 43 45 45 42 42 42 41 39 40 nan nan nan 48 nan nan nan nan nan nan nan nan nan nan nan nan nan nan nan nan nan nan nan
30 29 27 26 24 23 22 21 21 22 21 22 24 28 30 31 33 35 37 38 40 42 44 47 49 50 50 47 47 45 41 42 49 54 55 54 51 45 43 40 39 39 40 39 38 39 37 38 39 41 40 40 44 45 47 47 44 44 44 43 41 nan nan nan nan nan nan nan nan nan nan nan nan nan nan nan nan nan nan nan nan nan nan nan nan
31 30 31 32 31 29 27 25 24 23 23 25 28 31 31 33 35 37 38 39 41 43 46 48 50 49 47 46 45 44 43 43 48 54 55 54 52 47 43 41 39 39 39 40 39 36 36 37 38 45 45 45 45 45 46 48 46 46 46 45 44 43 nan nan nan nan nan nan nan nan nan nan nan nan nan nan nan nan nan nan nan nan nan nan nan
36 37 39 38 35 32 31 29 26 24 25 28 31 32 32 34 37 38 40 40 42 44 46 46 47 46 44 44 44 42 43 46 49 52 52 53 52 49 43 41 40 40 40 40 40 39 38 39 40 44 47 45 47 49 51 49 48 47 47 46 nan nan nan nan nan nan nan nan nan nan nan nan nan nan nan nan nan nan nan nan nan nan nan nan nan
44 46 46 43 38 36 35 31 28 27 30 32 33 33 33 36 38 40 40 42 45 45 45 46 47 45 44 45 44 43 46 53 51 51 53 53 52 49 43 40 41 42 41 40 39 39 40 42 43 44 48 50 51 52 52 51 49 46 46 nan nan nan nan nan nan nan nan nan nan nan nan nan nan nan nan nan nan nan nan nan nan nan nan nan nan
53 52 52 49 44 40 37 34 30 32 33 34 35 37 37 39 40 41 43 45 47 47 48 49 49 47 45 46 46 46 47 51 56 54 53 54 51 46 nan 42 44 42 42 41 41 41 42 44 46 49 52 52 52 nan nan nan nan nan nan nan nan nan nan nan nan nan nan nan nan nan nan nan nan nan nan nan nan nan nan nan nan nan nan nan nan
60 60 58 55 50 45 40 37 36 36 37 37 39 40 39 41 42 42 46 49 50 52 51 51 49 47 47 48 49 49 50 51 52 56 55 53 50 48 nan 43 42 40 42 43 42 44 46 46 48 53 54 nan nan nan nan nan nan nan nan nan nan nan nan nan nan nan nan nan nan nan nan nan nan nan nan nan nan nan nan nan nan nan nan nan nan
67 67 65 61 55 48 42 39 38 39 38 39 40 40 41 43 44 44 50 51 52 54 53 50 47 46 48 50 51 52 52 52 51 52 nan nan nan nan nan nan nan nan 42 41 43 46 49 52 54 55 nan 52 52 50 nan nan nan nan nan nan nan nan nan nan nan nan nan nan nan nan nan nan nan nan nan nan nan nan nan nan nan nan nan nan nan
83 79 76 69 65 60 56 51 49 48 42 36 37 39 43 45 47 48 51 52 52 53 50 45 43 45 48 51 54 54 53 53 nan nan nan nan nan nan nan nan nan nan nan 43 46 50 53 53 54 54 52 51 48 45 44 nan nan nan nan nan nan nan nan nan nan nan nan nan nan nan nan nan nan nan nan nan nan nan nan nan nan nan nan nan nan
81 76 69 63 62 60 58 53 45 38 36 36 38 42 45 47 50 50 52 54 52 49 45 43 44 47 50 53 55 55 54 53 nan nan nan nan nan nan nan nan nan nan 45 45 48 48 49 49 48 49 48 49 46 45 43 nan nan nan nan nan nan nan nan nan nan nan nan nan nan nan nan nan nan nan nan nan nan nan nan nan nan nan nan nan nan
75 68 58 53 49 45 44 41 35 32 35 38 42 45 47 50 52 53 56 57 52 46 44 43 46 49 51 54 56 55 54 nan nan nan nan nan nan nan nan nan nan nan nan nan nan nan 48 49 49 47 46 44 41 40 nan nan nan nan nan nan nan nan nan nan nan nan nan nan nan nan nan nan nan nan nan nan nan nan nan nan nan nan nan nan nan
66 60 48 40 40 37 33 33 34 37 40 43 43 43 47 51 53 54 52 48 45 45 45 46 46 49 53 56 58 55 53 nan nan nan nan nan nan nan nan nan nan nan nan nan nan nan 46 46 46 nan nan nan nan nan nan nan nan nan nan nan nan nan nan nan nan nan nan nan nan nan nan nan nan nan nan nan nan nan nan nan nan nan nan nan nan
54 51 41 34 33 31 31 33 36 38 42 45 49 52 54 55 50 51 50 46 46 51 51 47 nan 49 nan 55 55 56 50 48 nan nan nan nan nan nan nan nan nan nan nan nan nan nan nan 46 45 nan nan nan nan nan nan nan nan nan nan nan nan nan nan nan nan nan nan nan nan nan nan nan nan nan nan nan nan nan nan nan nan nan nan nan nan
32 35 36 34 33 32 32 34 37 40 44 48 51 53 54 54 54 53 54 53 60 62 nan nan nan nan nan nan 47 41 45 54 57 nan nan nan nan nan nan nan nan nan nan nan nan nan nan nan nan nan nan nan nan nan nan nan nan nan nan nan nan nan nan nan nan nan nan nan nan nan nan nan nan nan nan nan nan nan nan nan nan nan nan nan nan
23 29 35 37 38 36 36 39 42 44 46 48 51 52 54 53 49 49 53 60 63 63 nan nan nan nan nan nan nan 39 43 54 55 nan nan nan nan nan nan nan nan nan nan nan nan nan nan nan nan nan nan nan nan nan nan nan nan nan nan nan nan nan nan nan nan nan nan nan nan nan nan nan nan nan nan nan nan nan nan nan nan nan nan nan nan
28 33 36 37 38 39 41 43 44 46 48 50 52 54 54 52 53 53 52 55 62 63 nan nan nan nan nan nan nan nan nan 48 53 nan nan 50 50 nan nan nan nan nan nan nan nan nan nan nan nan nan nan nan nan nan nan nan nan nan nan nan nan nan nan nan nan nan nan nan nan nan nan nan nan nan nan nan nan nan nan nan nan nan nan nan nan
33 35 36 37 39 42 45 46 46 47 49 50 52 53 52 51 55 58 58 56 55 54 nan nan nan nan nan nan nan nan nan nan nan nan nan nan 50 49 nan nan nan nan nan nan nan nan nan nan nan nan nan nan nan nan nan nan nan nan nan nan nan nan nan nan nan nan nan nan nan nan nan nan nan nan nan nan nan nan nan nan nan nan nan nan nan
36 39 42 40 42 44 46 46 47 49 51 53 55 55 53 53 58 59 57 57 54 51 nan nan nan nan nan nan nan nan nan nan nan nan nan 50 51 50 nan nan nan nan nan nan nan nan nan nan nan nan nan nan nan nan nan nan nan nan nan nan nan nan nan nan nan nan nan nan nan nan nan nan nan nan nan nan nan nan nan nan nan nan nan nan nan
38 38 39 43 46 46 47 48 50 53 54 54 55 56 56 55 56 57 59 59 57 52 47 45 nan nan nan nan nan nan nan nan nan nan 50 50 51 nan nan nan nan nan nan nan nan nan nan nan nan nan nan nan nan nan nan nan nan nan nan nan nan nan nan nan nan nan nan nan nan nan nan nan nan nan nan nan nan nan nan nan nan nan nan nan nan
39 41 42 44 45 46 48 51 53 55 56 57 55 54 54 55 58 60 60 57 52 47 47 44 nan nan nan nan nan nan nan nan nan nan nan nan nan nan nan nan nan nan nan nan nan nan nan nan nan nan nan nan nan nan nan nan nan nan nan nan nan nan nan nan nan nan nan nan nan nan nan nan nan nan nan nan nan nan nan nan nan nan nan nan nan
42 44 46 48 48 49 50 51 52 56 57 56 53 53 55 57 60 60 55 47 44 43 43 nan nan nan nan nan nan nan nan nan nan nan nan nan nan nan nan nan nan nan nan nan nan nan nan nan nan nan nan nan nan nan nan nan nan nan nan nan nan nan nan nan nan nan nan nan nan nan nan nan nan nan nan nan nan nan nan nan nan nan nan nan nan
43 48 51 52 49 49 50 51 53 54 56 57 58 59 61 61 59 54 48 43 41 41 nan nan nan nan nan nan nan nan nan nan nan nan nan nan nan nan nan nan nan nan nan nan nan nan nan nan nan nan nan nan nan nan nan nan nan nan nan nan nan nan nan nan nan nan nan nan nan nan nan nan nan nan nan nan nan nan nan nan nan nan nan nan nan
44 44 47 52 50 50 48 49 52 56 59 61 60 59 58 54 52 48 45 42 nan nan nan nan nan nan nan nan nan nan nan nan nan nan nan nan nan nan nan nan nan nan nan nan nan nan nan nan nan nan nan nan nan nan nan nan nan nan nan nan nan nan nan nan nan nan nan nan nan nan nan nan nan nan nan nan nan nan nan nan nan nan nan nan nan
42 45 48 52 55 54 52 52 54 56 55 55 51 48 45 45 45 nan nan nan nan nan nan nan nan nan nan nan nan nan nan nan nan nan nan nan nan nan nan nan nan nan nan nan nan nan nan nan nan nan nan nan nan nan nan nan nan nan nan nan nan nan nan nan nan nan nan nan nan nan nan nan nan nan nan nan nan nan nan nan nan nan nan nan nan
49 50 48 47 52 56 56 54 48 45 43 39 38 38 39 nan nan nan nan nan nan nan nan nan nan nan nan nan nan nan nan nan nan nan nan nan nan nan nan nan nan nan nan nan nan nan nan nan nan nan nan nan nan nan nan nan nan nan nan nan nan nan nan nan nan nan nan nan nan nan nan nan nan nan nan nan nan nan nan nan nan nan nan nan nan
51 51 50 50 52 52 50 48 40 29 31 30 33 37 41 nan nan nan nan nan nan nan nan nan nan nan nan nan nan nan nan nan nan nan nan nan nan nan nan nan nan nan nan nan nan nan nan nan nan nan nan nan nan nan nan nan nan nan nan nan nan nan nan nan nan nan nan nan nan nan nan nan nan nan nan nan nan nan nan nan nan nan nan nan nan
50 51 51 49 53 51 44 40 nan 31 29 34 43 nan nan nan 41 40 41 41 40 39 40 nan nan nan nan nan nan nan nan nan nan nan nan nan nan nan nan nan nan nan nan nan nan nan nan nan nan nan nan nan nan nan nan nan nan nan nan nan nan nan nan nan nan nan nan nan nan nan nan nan nan nan nan nan nan nan nan nan nan nan nan nan nan
47 48 50 nan 44 39 nan nan 35 nan nan nan nan nan nan 32 40 41 42 41 40 40 40 nan nan nan nan nan nan nan nan nan nan nan nan nan nan nan nan nan nan nan nan nan nan nan nan nan nan nan nan nan nan nan nan nan nan nan nan nan nan nan nan nan nan nan nan nan nan nan nan nan nan nan nan nan nan nan nan nan nan nan nan nan nan
nan 47 44 nan nan nan nan nan 35 nan nan nan nan nan 37 39 40 41 nan nan 40 40 nan nan nan nan nan nan nan nan nan nan nan nan nan nan nan nan nan nan nan nan nan nan nan nan nan nan nan nan nan nan nan nan nan nan nan nan nan nan nan nan nan nan nan nan nan nan nan nan nan nan nan nan nan nan nan nan nan nan nan nan nan nan nan
nan nan nan nan 40 nan nan nan nan 34 nan nan 35 41 40 40 39 nan nan nan nan nan nan nan nan nan nan nan nan nan nan nan nan nan nan nan nan nan nan nan nan nan nan nan nan nan nan nan nan nan nan nan nan nan nan nan nan nan nan nan nan nan nan nan nan nan nan nan nan nan nan nan nan nan nan nan nan nan nan nan nan nan nan nan nan
nan nan nan nan nan nan nan 33 nan nan nan 40 41 41 40 nan nan nan nan nan nan nan nan nan nan nan nan nan nan nan nan nan nan nan nan nan nan nan nan nan nan nan nan nan nan nan nan nan nan nan nan nan nan nan nan nan nan nan nan nan nan nan nan nan nan nan nan nan nan nan nan nan nan nan nan nan nan nan nan nan nan nan nan nan nan
nan nan nan nan nan nan nan nan nan nan nan nan nan nan nan nan nan nan nan nan nan nan nan nan nan nan nan nan nan nan nan nan nan nan nan nan nan nan nan nan nan nan nan nan nan nan nan nan nan nan nan nan nan nan nan nan nan nan nan nan nan nan nan nan nan nan nan nan nan nan nan nan nan nan nan nan nan nan nan nan nan nan nan nan nan
nan nan nan nan nan nan nan nan nan nan nan nan nan nan nan nan nan nan nan nan nan nan nan nan nan nan nan nan nan nan nan nan nan nan nan nan nan nan nan nan nan nan nan nan nan nan nan nan nan nan nan nan nan nan nan nan nan nan nan nan nan nan nan nan nan nan nan nan nan nan nan nan nan nan nan nan nan nan nan nan nan nan nan nan nan
29 nan nan nan nan nan nan nan nan nan nan nan nan nan nan nan nan nan nan nan nan nan nan nan nan nan nan nan nan nan nan nan nan nan nan nan nan nan nan nan nan nan nan nan nan nan nan nan nan nan nan nan nan nan nan nan nan nan nan nan nan nan nan nan nan nan nan nan nan nan nan nan nan nan nan nan nan nan nan nan nan nan nan nan nan
Wind_Direction
315 313 311 318 322 336 340 338 350 355 1 23 31 1 354 347 346 334 328 337 334 342 345 346 349 353 354 349 346 346 347 346 345 nan 345 348 nan nan nan 351 351 nan 344 343 340 339 nan nan nan nan 337 nan nan 333 331 331 327 325 323 320 323 320 311 nan nan nan 292 294 294 291 287 284 281 nan nan nan nan 281 284 287 nan nan nan nan nan
321 320 320 325 339 351 357 357 7 15 34 64 33 360 346 341 337 325 335 337 339 343 344 348 353 355 355 353 350 350 351 351 348 345 nan nan 345 347 347 348 nan nan nan nan nan nan 337 337 336 338 338 335 333 333 333 332 331 330 329 327 327 327 319 307 nan nan nan 290 291 290 289 289 nan nan nan nan nan nan 281 283 nan nan nan nan nan
323 325 330 337 351 1 8 18 32 49 54 49 22 356 343 338 336 338 339 340 342 341 344 349 353 352 349 348 350 353 353 351 350 346 344 nan nan 343 342 341 344 nan nan nan nan nan nan 334 333 332 332 333 332 332 330 330 330 330 331 328 327 325 319 312 301 297 nan nan nan nan nan nan nan nan nan nan nan nan nan nan nan 284 281 nan nan
325 331 337 347 355 6 24 41 63 78 58 33 13 357 348 345 342 346 345 343 345 344 345 346 346 345 343 346 351 352 351 348 346 344 342 341 nan 342 341 337 337 339 340 339 337 334 335 333 332 329 329 330 331 330 329 328 328 329 329 328 328 328 325 318 312 nan nan nan 297 nan nan nan nan 301 298 297 298 nan nan nan nan nan nan nan nan
325 332 339 348 355 12 36 64 84 82 58 27 8 357 355 355 355 357 351 354 353 347 347 342 343 345 348 351 351 349 346 343 342 340 338 337 338 339 341 nan 336 336 335 nan 335 333 331 330 329 327 327 328 328 327 328 328 328 328 329 329 329 329 326 323 318 309 nan nan nan nan nan nan nan nan nan 300 298 299 298 298 296 nan nan nan nan
322 327 334 345 353 10 47 81 82 74 64 34 360 355 359 8 9 5 0 358 355 356 349 347 346 348 350 350 347 343 340 340 341 340 337 335 335 336 338 338 337 336 334 334 333 331 328 328 327 325 324 326 328 326 326 328 326 327 329 329 330 329 328 325 320 314 307 nan nan nan nan nan nan nan 299 299 299 297 296 297 294 nan nan nan nan
315 324 330 345 351 15 62 86 83 79 79 50 352 352 5 9 6 4 358 355 351 351 351 350 348 347 349 349 346 341 340 340 340 339 338 336 336 336 336 337 336 334 334 333 332 329 326 323 323 323 323 325 326 324 323 322 322 324 326 325 325 325 324 323 321 319 316 311 303 300 295 293 295 293 291 293 296 298 298 295 nan nan nan nan nan
309 317 320 340 360 32 88 96 86 87 93 81 29 11 3 358 357 352 348 351 349 347 348 350 347 344 346 347 344 340 339 339 338 338 337 335 333 335 335 335 335 334 332 331 328 325 322 320 321 320 319 321 322 322 nan 323 322 323 324 323 324 324 324 323 321 319 318 316 313 306 299 295 292 292 288 288 290 292 295 298 298 nan nan nan nan
304 307 311 344 12 59 125 128 110 99 90 96 65 8 356 349 342 340 342 346 345 346 346 346 344 343 343 342 340 338 339 340 338 336 334 330 nan nan nan nan nan nan 331 329 327 323 319 319 320 318 317 321 324 320 321 321 319 320 320 320 320 321 321 320 322 321 319 316 nan nan nan nan nan nan nan nan nan nan nan nan nan 292 289 nan nan
302 302 312 351 13 163 171 231 262 276 108 114 75 339 337 334 331 335 339 341 340 340 342 343 341 341 340 339 337 336 337 337 340 340 334 330 330 329 nan nan nan nan 327 327 327 324 320 319 318 321 322 323 321 320 321 320 319 319 320 320 321 320 321 322 322 321 nan nan 313 310 309 311 308 304 303 nan nan nan nan nan nan nan nan nan nan
295 299 310 313 252 217 218 261 272 292 223 187 246 317 325 323 326 327 330 333 336 335 334 337 338 337 336 334 333 333 335 335 338 337 334 331 327 nan nan nan nan nan 325 326 326 324 320 319 315 316 316 318 318 323 320 318 321 325 325 325 323 321 321 322 321 317 313 313 310 309 308 306 302 299 298 297 295 nan nan nan 294 nan nan nan nan
293 297 290 267 240 234 228 252 275 282 258 254 285 306 309 313 317 317 317 323 326 325 329 334 333 331 330 329 330 331 333 335 334 332 330 326 nan nan 325 nan nan 327 326 325 323 320 320 318 313 310 311 313 311 310 312 317 323 329 329 327 328 328 323 317 nan nan 310 309 307 306 303 302 299 299 nan nan nan 302 300 299 nan nan nan nan nan
293 288 277 270 262 245 243 246 257 261 262 265 277 289 301 308 310 310 314 313 309 318 325 324 326 327 328 326 326 328 328 329 329 327 322 319 323 nan nan nan 327 329 327 325 323 322 319 316 314 310 309 310 310 314 316 319 326 329 328 329 324 319 316 316 316 314 308 306 305 305 306 303 nan nan nan nan 306 nan nan nan 302 nan nan nan nan
294 291 277 272 269 258 252 250 251 257 257 263 272 284 295 305 309 306 299 299 306 311 315 316 314 319 323 322 322 323 322 318 326 325 319 320 327 nan nan nan 329 330 328 325 323 323 321 320 315 312 311 311 315 318 318 319 318 319 318 314 311 312 316 318 317 315 311 309 308 nan nan nan nan nan nan 308 308 308 306 306 nan nan nan nan nan
296 294 288 275 264 258 256 254 257 255 258 264 270 281 292 294 298 299 300 303 306 309 313 317 312 310 314 316 317 317 316 318 323 321 316 320 333 334 nan 329 330 328 325 324 323 322 321 320 318 316 317 317 318 318 320 321 319 316 314 314 314 313 309 307 307 307 308 308 309 nan nan nan nan nan 307 307 309 307 305 nan nan nan nan nan nan
294 293 291 278 264 260 260 256 257 257 260 264 272 281 287 291 296 294 294 299 306 312 318 314 309 309 312 316 317 319 316 319 319 315 315 322 331 330 328 326 325 323 322 323 323 321 320 321 320 319 320 320 324 327 326 319 316 315 315 314 311 308 307 307 309 309 308 308 308 309 305 300 300 301 302 303 302 nan nan nan nan nan nan nan nan
292 294 295 287 272 258 254 254 255 259 261 266 275 283 286 289 290 292 295 303 307 309 312 315 312 314 317 318 320 321 318 318 316 316 319 324 327 328 326 323 320 318 319 320 322 322 323 322 322 321 321 320 324 326 323 317 315 315 314 311 307 304 303 nan 305 309 306 305 304 303 nan nan nan nan nan nan nan nan nan nan nan nan nan nan nan
295 295 294 287 271 257 251 253 258 262 265 272 278 281 283 283 289 294 300 304 308 312 314 314 315 316 317 321 322 321 316 321 322 322 324 328 328 325 322 321 320 318 319 321 322 322 323 328 323 320 318 319 320 319 319 317 315 315 312 308 305 304 nan nan nan 298 nan nan nan nan nan nan nan nan nan nan nan nan nan nan nan nan nan nan nan
295 294 291 283 269 259 254 255 260 266 272 276 279 281 284 289 293 297 301 305 308 311 314 313 313 313 315 315 316 314 313 319 325 324 326 327 323 318 318 318 320 320 320 321 320 320 320 323 321 316 316 316 317 318 320 318 314 311 310 308 308 nan nan nan nan nan nan nan nan nan nan nan nan nan nan nan nan nan nan nan nan nan nan nan nan
291 289 281 272 265 261 257 259 261 269 274 274 276 280 283 289 295 298 301 304 307 308 309 311 314 315 312 309 310 311 312 315 321 325 326 322 321 315 314 316 320 322 322 321 320 319 317 315 314 315 315 317 319 319 317 314 310 309 309 311 311 312 nan nan nan nan nan nan nan nan nan nan nan nan nan nan nan nan nan nan nan nan nan nan nan
278 273 268 267 265 263 259 262 266 267 270 273 276 281 287 290 292 295 299 301 301 301 307 310 311 309 306 306 309 311 310 313 319 323 321 320 321 317 315 319 321 322 323 322 321 320 318 316 313 317 319 314 309 308 308 308 307 308 310 313 nan nan nan nan nan nan nan nan nan nan nan nan nan nan nan nan nan nan nan nan nan nan nan nan nan
265 264 266 266 262 258 259 261 266 265 266 269 273 278 279 282 286 291 293 295 297 298 299 299 302 303 304 306 308 306 309 314 313 319 320 321 322 323 317 321 322 322 322 322 320 319 318 316 314 318 317 310 309 309 309 310 311 311 314 nan nan nan nan nan nan nan nan nan nan nan nan nan nan nan nan nan nan nan nan nan nan nan nan nan nan
262 263 263 262 258 255 257 265 262 258 262 267 272 273 275 280 284 288 291 291 291 291 292 296 300 302 303 303 302 302 306 310 315 315 321 321 323 324 nan 320 323 321 321 321 321 320 315 314 316 319 314 312 311 nan nan nan nan nan nan nan nan nan nan nan nan nan nan nan nan nan nan nan nan nan nan nan nan nan nan nan nan nan nan nan nan
258 259 258 259 256 252 253 255 255 257 263 264 268 273 277 282 285 286 286 287 289 292 294 295 300 302 302 301 301 302 306 310 315 318 319 321 322 326 nan 304 313 317 320 321 319 316 314 315 316 316 314 nan nan nan nan nan nan nan nan nan nan nan nan nan nan nan nan nan nan nan nan nan nan nan nan nan nan nan nan nan nan nan nan nan nan
251 254 254 255 253 247 244 246 251 255 258 264 270 276 280 283 283 282 285 287 292 295 294 293 298 302 302 301 302 305 308 311 313 317 nan nan nan nan nan nan nan nan 313 313 314 315 316 314 311 312 nan 313 312 311 nan nan nan nan nan nan nan nan nan nan nan nan nan nan nan nan nan nan nan nan nan nan nan nan nan nan nan nan nan nan nan
236 238 238 236 233 229 228 229 233 239 250 261 271 274 277 278 278 281 284 285 288 292 293 292 297 302 302 302 305 307 310 312 nan nan nan nan nan nan nan nan nan nan nan 309 309 310 310 308 308 308 307 310 311 312 312 nan nan nan nan nan nan nan nan nan nan nan nan nan nan nan nan nan nan nan nan nan nan nan nan nan nan nan nan nan nan
242 240 239 237 236 235 235 233 237 246 256 264 267 271 274 276 276 276 277 279 281 288 292 292 295 300 303 304 305 307 310 312 nan nan nan nan nan nan nan nan nan nan 309 309 307 307 307 309 311 311 310 313 312 314 315 nan nan nan nan nan nan nan nan nan nan nan nan nan nan nan nan nan nan nan nan nan nan nan nan nan nan nan nan nan nan
249 253 255 251 245 245 245 250 258 265 268 270 273 273 273 275 277 278 279 280 281 286 289 291 295 298 301 303 305 307 310 nan nan nan nan nan nan nan nan nan nan nan nan nan nan nan 308 307 307 308 309 311 312 311 nan nan nan nan nan nan nan nan nan nan nan nan nan nan nan nan nan nan nan nan nan nan nan nan nan nan nan nan nan nan nan
244 254 260 250 241 243 253 261 268 270 266 260 260 264 275 280 279 277 274 275 281 288 289 290 292 295 298 303 305 308 311 nan nan nan nan nan nan nan nan nan nan nan nan nan nan nan 308 310 310 nan nan nan nan nan nan nan nan nan nan nan nan nan nan nan nan nan nan nan nan nan nan nan nan nan nan nan nan nan nan nan nan nan nan nan nan
234 242 251 250 245 252 261 265 265 269 270 269 268 264 256 258 268 282 285 279 280 286 289 290 nan 293 nan 294 301 308 315 319 nan nan nan nan nan nan nan nan nan nan nan nan nan nan nan 314 315 nan nan nan nan nan nan nan nan nan nan nan nan nan nan nan nan nan nan nan nan nan nan nan nan nan nan nan nan nan nan nan nan nan nan nan nan
221 230 242 252 262 267 267 264 265 266 268 270 270 272 269 260 259 268 279 284 286 284 nan nan nan nan nan nan 293 300 314 313 316 nan nan nan nan nan nan nan nan nan nan nan nan nan nan nan nan nan nan nan nan nan nan nan nan nan nan nan nan nan nan nan nan nan nan nan nan nan nan nan nan nan nan nan nan nan nan nan nan nan nan nan nan
230 232 241 251 260 265 265 268 270 268 268 271 273 276 276 276 272 269 275 283 284 283 nan nan nan nan nan nan nan 299 310 315 317 nan nan nan nan nan nan nan nan nan nan nan nan nan nan nan nan nan nan nan nan nan nan nan nan nan nan nan nan nan nan nan nan nan nan nan nan nan nan nan nan nan nan nan nan nan nan nan nan nan nan nan nan
245 245 250 256 261 265 266 268 267 268 271 275 277 279 280 281 281 281 275 275 280 282 nan nan nan nan nan nan nan nan nan 315 317 nan nan 313 313 nan nan nan nan nan nan nan nan nan nan nan nan nan nan nan nan nan nan nan nan nan nan nan nan nan nan nan nan nan nan nan nan nan nan nan nan nan nan nan nan nan nan nan nan nan nan nan nan
249 252 257 259 260 261 263 265 268 270 271 272 273 275 277 279 282 284 284 283 282 280 nan nan nan nan nan nan nan nan nan nan nan nan nan nan 306 305 nan nan nan nan nan nan nan nan nan nan nan nan nan nan nan nan nan nan nan nan nan nan nan nan nan nan nan nan nan nan nan nan nan nan nan nan nan nan nan nan nan nan nan nan nan nan nan
257 261 265 260 258 262 264 267 271 272 273 274 275 277 279 282 285 286 287 289 290 289 nan nan nan nan nan nan nan nan nan nan nan nan nan 304 305 306 nan nan nan nan nan nan nan nan nan nan nan nan nan nan nan nan nan nan nan nan nan nan nan nan nan nan nan nan nan nan nan nan nan nan nan nan nan nan nan nan nan nan nan nan nan nan nan
261 261 263 263 259 262 265 267 270 271 272 274 276 278 281 283 284 285 287 287 286 285 284 285 nan nan nan nan nan nan nan nan nan nan 305 307 310 nan nan nan nan nan nan nan nan nan nan nan nan nan nan nan nan nan nan nan nan nan nan nan nan nan nan nan nan nan nan nan nan nan nan nan nan nan nan nan nan nan nan nan nan nan nan nan nan
261 262 262 261 262 265 267 269 272 274 274 275 277 279 282 284 286 289 289 286 281 281 286 291 nan nan nan nan nan nan nan nan nan nan nan nan nan nan nan nan nan nan nan nan nan nan nan nan nan nan nan nan nan nan nan nan nan nan nan nan nan nan nan nan nan nan nan nan nan nan nan nan nan nan nan nan nan nan nan nan nan nan nan nan nan
259 262 261 260 261 263 264 268 272 272 273 274 277 279 281 284 288 290 290 288 287 288 291 nan nan nan nan nan nan nan nan nan nan nan nan nan nan nan nan nan nan nan nan nan nan nan nan nan nan nan nan nan nan nan nan nan nan nan nan nan nan nan nan nan nan nan nan nan nan nan nan nan nan nan nan nan nan nan nan nan nan nan nan nan nan
251 260 263 264 262 262 263 266 270 273 274 277 279 281 282 285 286 287 287 290 293 293 nan nan nan nan nan nan nan nan nan nan nan nan nan nan nan nan nan nan nan nan nan nan nan nan nan nan nan nan nan nan nan nan nan nan nan nan nan nan nan nan nan nan nan nan nan nan nan nan nan nan nan nan nan nan nan nan nan nan nan nan nan nan nan
259 261 265 269 268 270 270 269 270 272 274 276 279 280 281 281 282 285 289 293 nan nan nan nan nan nan nan nan nan nan nan nan nan nan nan nan nan nan nan nan nan nan nan nan nan nan nan nan nan nan nan nan nan nan nan nan nan nan nan nan nan nan nan nan nan nan nan nan nan nan nan nan nan nan nan nan nan nan nan nan nan nan nan nan nan
254 258 260 262 265 266 266 268 272 273 273 275 276 278 279 280 282 nan nan nan nan nan nan nan nan nan nan nan nan nan nan nan nan nan nan nan nan nan nan nan nan nan nan nan nan nan nan nan nan nan nan nan nan nan nan nan nan nan nan nan nan nan nan nan nan nan nan nan nan nan nan nan nan nan nan nan nan nan nan nan nan nan nan nan nan
260 260 258 259 263 268 268 264 259 270 275 273 273 277 280 nan nan nan nan nan nan nan nan nan nan nan nan nan nan nan nan nan nan nan nan nan nan nan nan nan nan nan nan nan nan nan nan nan nan nan nan nan nan nan nan nan nan nan nan nan nan nan nan nan nan nan nan nan nan nan nan nan nan nan nan nan nan nan nan nan nan nan nan nan nan
264 266 267 267 266 267 270 273 272 259 250 261 275 280 285 nan nan nan nan nan nan nan nan nan nan nan nan nan nan nan nan nan nan nan nan nan nan nan nan nan nan nan nan nan nan nan nan nan nan nan nan nan nan nan nan nan nan nan nan nan nan nan nan nan nan nan nan nan nan nan nan nan nan nan nan nan nan nan nan nan nan nan nan nan nan
265 265 265 267 272 272 271 272 nan 265 264 270 271 nan nan nan 286 288 291 292 291 291 291 nan nan nan nan nan nan nan nan nan nan nan nan nan nan nan nan nan nan nan nan nan nan nan nan nan nan nan nan nan nan nan nan nan nan nan nan nan nan nan nan nan nan nan nan nan nan nan nan nan nan nan nan nan nan nan nan nan nan nan nan nan nan
263 266 272 nan 269 266 nan nan 267 nan nan nan nan nan nan 286 286 288 289 289 290 290 291 nan nan nan nan nan nan nan nan nan nan nan nan nan nan nan nan nan nan nan nan nan nan nan nan nan nan nan nan nan nan nan nan nan nan nan nan nan nan nan nan nan nan nan nan nan nan nan nan nan nan nan nan nan nan nan nan nan nan nan nan nan nan
nan 274 267 nan nan nan nan nan 271 nan nan nan nan nan 282 281 281 283 nan nan 289 290 nan nan nan nan nan nan nan nan nan nan nan nan nan nan nan nan nan nan nan nan nan nan nan nan nan nan nan nan nan nan nan nan nan nan nan nan nan nan nan nan nan nan nan nan nan nan nan nan nan nan nan nan nan nan nan nan nan nan nan nan nan nan nan
nan nan nan nan 262 nan nan nan nan 259 nan nan 280 278 279 279 282 nan nan nan nan nan nan nan nan nan nan nan nan nan nan nan nan nan nan nan nan nan nan nan nan nan nan nan nan nan nan nan nan nan nan nan nan nan nan nan nan nan nan nan nan nan nan nan nan nan nan nan nan nan nan nan nan nan nan nan nan nan nan nan nan nan nan nan nan
nan nan nan nan nan nan nan 273 nan nan nan 276 278 279 280 nan nan nan nan nan nan nan nan nan nan nan nan nan nan nan nan nan nan nan nan nan nan nan nan nan nan nan nan nan nan nan nan nan nan nan nan nan nan nan nan nan nan nan nan nan nan nan nan nan nan nan nan nan nan nan nan nan nan nan nan nan nan nan nan nan nan nan nan nan nan
nan nan nan nan nan nan nan nan nan nan nan nan nan nan nan nan nan nan nan nan nan nan nan nan nan nan nan nan nan nan nan nan nan nan nan nan nan nan nan nan nan nan nan nan nan nan nan nan nan nan nan nan nan nan nan nan nan nan nan nan nan nan nan nan nan nan nan nan nan nan nan nan nan nan nan nan nan nan nan nan nan nan nan nan nan
nan nan nan nan nan nan nan nan nan nan nan nan nan nan nan nan nan nan nan nan nan nan nan nan nan nan nan nan nan nan nan nan nan nan nan nan nan nan nan nan nan nan nan nan nan nan nan nan nan nan nan nan nan nan nan nan nan nan nan nan nan nan nan nan nan nan nan nan nan nan nan nan nan nan nan nan nan nan nan nan nan nan nan nan nan
255 nan nan nan nan nan nan nan nan nan nan nan nan nan nan nan nan nan nan nan nan nan nan nan nan nan nan nan nan nan nan nan nan nan nan nan nan nan nan nan nan nan nan nan nan nan nan nan nan nan nan nan nan nan nan nan nan nan nan nan nan nan nan nan nan nan nan nan nan nan nan nan nan nan nan nan nan nan nan nan nan nan nan nan nan